Simultaneous Nadir Overpasses (SNOs) Predictions

Prediction of SNOs between AQUA and METOP-B Satellite Orbit:

Table of predicted SNOs for the next 14.0 days since TLE Epoch: 3/4/2017
Index Date (AQUA) Time (AQUA) Lat,Lon (AQUA) SZA (AQUA ) Date (METOP-B) Time (METOP-B) Lat,Lon (METOP-B) SZA (METOP-B ) Distance(km) Time Diff (sec)
1 03/06/2017 17:59:17 -73.69, 84.69 100.85 03/06/2017 17:58:15 -73.71, 84.70 100.83 1.42 62
2 03/06/2017 18:48:46 73.77,-107.85 79.23 03/06/2017 18:48:54 73.76,-107.84 79.21 1.48 8
3 03/06/2017 19:38:18 -74.10, 59.06 100.44 03/06/2017 19:39:28 -74.13, 60.38 100.47 40.34 70
4 03/09/2017 13:33:33 -73.70, 151.12 101.95 03/09/2017 13:32:37 -73.68, 151.04 101.95 3.19 56
5 03/09/2017 14:23:02 73.78, -41.43 78.13 03/09/2017 14:23:15 73.78, -41.39 78.13 1.34 13
6 03/09/2017 15:12:38 -74.31, 125.01 101.31 03/09/2017 15:13:46 -74.30, 127.21 101.42 66.32 68
7 03/12/2017 09:07:50 -73.70,-142.46 103.06 03/12/2017 09:06:59 -73.70,-142.51 103.05 1.52 51
8 03/12/2017 09:57:19 73.80, 24.97 77.04 03/12/2017 09:57:37 73.79, 25.05 77.03 2.49 18
9 03/12/2017 10:46:59 -74.52,-169.07 102.19 03/12/2017 10:48:04 -74.51,-165.83 102.33 96.25 65
10 03/15/2017 04:42:07 -73.72, -76.06 104.16 03/15/2017 04:41:21 -73.72, -76.06 104.15 0.13 46
11 03/15/2017 05:31:35 73.76, 91.48 75.88 03/15/2017 05:32:00 73.76, 91.37 75.88 3.40 25
12 03/18/2017 00:16:23 -73.73, -9.66 105.26 03/18/2017 00:15:42 -73.73, -9.62 105.25 1.36 41
13 03/18/2017 01:05:51 73.79, 157.86 74.79 03/18/2017 01:06:21 73.77, 157.80 74.77 2.56 30




NCC Satellite Simultaneous Nadir Overpasses (SNOs) Prediction Service
